Weather History for Pompano Beach, FL

Change the Weather History Date:

Monday, January 7, 2013

  Actual Average Record
Temperature  
Mean Temperature 72 °F -  
Max Temperature 77 °F 77 °F 86 °F (1960)
Min Temperature 68 °F 59 °F 41 °F (1956)
Cooling Degree Days 8    
Growing Degree Days 22 (Base 50)    
Moisture  
Dew Point 69 °F    
Average Humidity 93    
Maximum Humidity 100    
Minimum Humidity 64    
Precipitation  
Precipitation 0.10 in - - ()
Sea Level Pressure  
Sea Level Pressure 30.13 in    
Wind  
Wind Speed 4 mph (North)    
Max Wind Speed 12 mph    
Max Gust Speed 16 mph    
Visibility 9 miles    
Events Rain    
Averages and records for this station are not official NWS values.
T = Trace of Precipitation, MM = Missing Value Source: NWS Daily Summary

Daily Weather History Graph

Daily Weather History Graph

Search for Another Location

Airport:

Trip Planner

Search our weather history database for the weather conditions in past years. The results will help you decide how hot, cold, wet, or windy it might be!

Date:

Astronomy

Jan. 07, 2013 Rise Set
Actual Time 7:09 AM EST 5:44 PM EST
Civil Twilight 6:44 AM EST 6:09 PM EST
Nautical Twilight 6:15 AM EST 6:38 PM EST
Astronomical Twilight 5:47 AM EST 7:06 PM EST
Moon 2:37 AM EST (1/7) 1:49 PM EST (1/7)
Length of Visible Light 11h 25m
Length of Day
10h 35m
Waning Crescent, 23% of the Moon is Illuminated
Jan 7
Waning Crescent
Jan 11
New
Jan 18
First Quarter
Jan 26
Full
Feb 3
Last Quarter

Hourly Weather History & Observations

Time (EST) Temp. Dew Point Humidity Pressure Visibility Wind Dir Wind Speed Gust Speed Precip Events Conditions
12:53 AM 69.1 °F 69.1 °F 100% 30.12 in 10.0 mi WNW 3.5 mph - N/A   Clear
1:53 AM 69.1 °F 69.1 °F 100% 30.11 in 10.0 mi Calm Calm - N/A   Clear
2:53 AM 69.1 °F 69.1 °F 100% 30.10 in 10.0 mi NNW 5.8 mph - N/A   Clear
3:53 AM 68.0 °F 68.0 °F 100% 30.09 in 10.0 mi NNW 4.6 mph - N/A   Clear
4:53 AM 68.0 °F 68.0 °F 100% 30.09 in 10.0 mi Calm Calm - N/A   Clear
5:53 AM 68.0 °F 68.0 °F 100% 30.10 in 10.0 mi Calm Calm - N/A   Overcast
6:10 AM 69.8 °F 68.0 °F 94% 30.10 in 10.0 mi Calm Calm - N/A   Overcast
6:36 AM 69.8 °F 68.0 °F 94% 30.11 in 10.0 mi Calm Calm - N/A   Overcast
6:53 AM 68.0 °F 68.0 °F 100% 30.12 in 10.0 mi Calm Calm - N/A   Overcast
7:17 AM 69.8 °F 68.0 °F 94% 30.12 in 10.0 mi Calm Calm - N/A   Mostly Cloudy
7:53 AM 69.1 °F 69.1 °F 100% 30.14 in 10.0 mi NNE 3.5 mph - N/A   Overcast
8:53 AM 70.0 °F 68.0 °F 93% 30.16 in 10.0 mi North 5.8 mph - N/A   Overcast
9:53 AM 71.1 °F 70.0 °F 96% 30.18 in 10.0 mi North 5.8 mph - 0.00 in   Scattered Clouds
10:00 AM 71.6 °F 69.8 °F 94% 30.18 in 5.0 mi Variable 5.8 mph - 0.01 in Rain Light Rain
10:20 AM 69.8 °F 68.0 °F 94% 30.18 in 5.0 mi South 4.6 mph - 0.04 in Rain Light Rain
10:53 AM 70.0 °F 68.0 °F 93% 30.17 in 5.0 mi North 3.5 mph - 0.05 in Rain Light Rain
11:26 AM 69.8 °F 69.8 °F 100% 30.16 in 4.0 mi North 3.5 mph - 0.01 in Rain Light Rain
11:53 AM 70.0 °F 70.0 °F 100% 30.15 in 6.0 mi WNW 3.5 mph - 0.01 in Rain Light Rain
12:53 PM 72.0 °F 70.0 °F 93% 30.11 in 10.0 mi WNW 8.1 mph - 0.01 in   Overcast
1:53 PM 73.9 °F 70.0 °F 87% 30.10 in 10.0 mi NNW 6.9 mph - N/A   Overcast
2:53 PM 77.0 °F 68.0 °F 74% 30.09 in 10.0 mi North 10.4 mph - N/A   Partly Cloudy
3:53 PM 77.0 °F 64.0 °F 64% 30.09 in 10.0 mi North 4.6 mph - N/A   Partly Cloudy
4:53 PM 73.9 °F 68.0 °F 82% 30.10 in 10.0 mi North 9.2 mph - N/A   Overcast
6:53 PM 73.9 °F 69.1 °F 85% 30.13 in 10.0 mi NNE 6.9 mph - N/A   Overcast
7:53 PM 73.9 °F 69.1 °F 85% 30.14 in 10.0 mi NE 4.6 mph - N/A   Overcast
8:53 PM 72.0 °F 69.1 °F 91% 30.15 in 10.0 mi NE 3.5 mph - N/A   Mostly Cloudy
9:53 PM 70.0 °F 69.1 °F 97% 30.15 in 10.0 mi Calm Calm - N/A   Mostly Cloudy
10:13 PM 71.6 °F 71.6 °F 100% 30.14 in 10.0 mi East 10.4 mph 16.1 mph 0.03 in Rain Light Rain
10:28 PM 71.6 °F 69.8 °F 94% 30.13 in 10.0 mi East 11.5 mph - 0.03 in   Overcast
10:53 PM 71.1 °F 68.0 °F 90% 30.13 in 10.0 mi ENE 4.6 mph - 0.03 in Rain Light Rain
11:53 PM 73.9 °F 71.1 °F 91% 30.12 in 10.0 mi East 6.9 mph - 0.00 in   Overcast